Vorticity
nan nan nan nan nan nan nan nan nan nan nan nan nan nan nan nan nan nan nan nan nan nan nan nan nan nan nan nan nan nan nan nan nan nan nan nan nan nan nan nan nan nan nan nan nan nan nan
nan 9 7 7 7 6 6 6 6 6 6 5 5 7 8 8 9 10 9 10 8 9 10 9 8 10 11 5 12 9 10 8 6 4 5 2 5 7 8 11 7 10 11 12 16 12 nan
nan 16 8 8 8 7 6 6 6 6 7 6 6 7 7 9 9 10 8 10 11 10 9 9 8 11 8 9 8 6 1 6 9 6 5 5 4 4 7 11 12 9 11 9 11 10 nan
nan 16 12 7 7 7 7 7 6 6 7 6 6 6 8 9 9 10 9 12 11 9 9 8 9 9 8 12 8 9 7 10 13 10 5 13 10 6 7 8 13 9 6 4 7 10 nan
nan 14 14 9 7 6 6 7 6 7 7 6 5 5 9 9 10 11 13 11 10 9 8 9 7 5 9 11 8 14 13 10 13 14 9 10 12 8 10 8 7 10 12 6 3 9 nan
nan 9 16 10 7 7 6 6 6 7 6 6 5 6 9 9 11 15 13 10 10 9 6 6 9 9 9 3 9 14 14 7 5 9 5 5 8 8 10 10 8 7 9 12 3 7 nan
nan 6 14 15 9 7 6 6 7 7 7 6 5 8 10 11 16 13 4 5 7 9 6 2 3 6 5 8 13 10 9 7 6 3 6 9 9 12 11 5 8 13 11 9 3 7 nan
nan 6 8 15 11 7 7 6 7 6 7 7 7 9 11 16 17 3 -0 -0 5 10 17 12 0 7 8 10 11 9 7 8 5 3 12 7 8 11 12 15 12 12 7 4 4 8 nan
nan 9 8 10 14 10 7 7 7 7 8 7 7 10 14 18 5 4 8 4 -3 6 16 17 12 9 15 9 8 8 10 15 10 -3 6 14 12 9 13 13 2 7 12 9 8 4 nan
nan 8 7 9 15 11 9 8 7 7 7 8 8 12 14 6 3 5 11 13 10 7 11 11 10 13 10 7 9 6 12 11 13 12 5 12 11 13 7 5 8 9 11 16 11 4 nan
nan 9 7 9 12 13 11 8 8 8 8 8 10 14 15 -8 -1 4 8 17 13 10 10 8 8 8 11 9 9 7 9 16 10 11 7 9 11 9 6 6 11 14 14 8 4 8 nan
nan 8 9 8 10 14 10 8 7 8 8 8 10 13 5 1 5 7 7 12 9 8 12 10 9 8 4 7 8 7 7 10 10 9 11 7 7 8 8 13 16 8 4 4 6 8 nan
nan 9 9 7 10 13 10 8 8 8 8 10 11 13 2 0 5 11 14 10 10 8 10 12 10 10 4 6 8 10 11 8 9 6 7 2 6 10 9 6 8 7 4 2 7 8 nan
nan 9 9 9 9 12 11 9 8 8 9 11 14 8 2 2 -1 9 15 10 8 10 7 8 14 12 9 5 5 13 11 5 6 10 11 7 6 5 7 7 10 12 6 10 12 10 nan
nan 9 10 10 9 12 13 9 8 8 9 11 6 2 9 17 8 5 13 11 8 8 13 9 11 5 6 6 8 8 8 7 6 12 10 9 8 6 9 11 15 11 10 9 12 8 nan
nan 8 8 11 10 12 13 11 8 9 11 2 -2 8 15 17 14 6 9 11 7 8 12 11 7 10 8 8 6 8 7 7 7 9 12 12 5 9 8 4 8 13 14 7 7 7 nan
nan 8 7 11 13 11 13 13 9 9 11 -2 -1 6 15 13 6 9 11 8 9 10 12 10 6 12 11 8 10 11 6 5 9 8 11 10 8 10 7 12 6 9 2 5 8 11 nan
nan 7 8 10 11 12 16 13 9 9 5 1 6 10 8 7 6 11 13 7 9 11 10 10 9 14 14 7 10 11 5 6 12 8 9 7 12 11 9 7 9 8 13 8 10 10 nan
nan 8 11 12 1 14 26 13 10 9 -5 -3 8 8 9 12 11 7 11 9 8 12 11 10 9 7 14 11 8 11 9 9 12 11 12 7 8 8 8 8 10 12 9 6 7 11 nan
nan 10 12 15 1 15 26 12 11 7 -8 -5 9 6 8 9 14 16 8 7 3 7 9 9 10 10 11 7 12 14 7 7 10 9 11 11 8 8 6 8 14 16 11 7 -0 1 nan
nan 12 14 10 7 17 21 13 8 6 -4 -4 11 12 11 13 12 13 11 9 3 4 8 10 8 12 8 8 9 9 9 7 9 9 7 11 11 11 10 9 9 10 14 11 4 -0 nan
nan 13 16 8 6 13 22 10 9 8 -3 1 12 9 14 15 12 11 9 12 6 5 12 11 11 13 8 10 14 14 10 9 11 10 7 11 13 11 9 8 9 11 9 10 10 8 nan
nan 14 12 11 8 18 16 9 11 8 -7 0 6 15 14 10 12 8 10 13 10 1 5 16 16 8 8 11 16 17 17 18 19 16 10 11 12 8 7 9 11 18 22 13 8 8 nan
nan 14 8 7 22 25 10 11 12 9 -8 -4 8 10 13 15 13 11 9 11 14 6 5 10 10 8 17 11 4 4 7 8 9 11 15 13 7 9 12 10 7 7 17 17 16 12 nan
nan 15 10 16 22 12 11 12 10 11 -4 -9 12 9 9 16 14 13 12 6 6 8 9 8 9 22 11 -2 3 3 2 4 4 7 12 14 11 8 11 5 7 16 14 12 11 10 nan
nan 15 14 17 10 10 9 10 10 10 -1 -6 9 10 13 13 14 17 12 4 5 6 7 6 14 10 2 11 12 11 9 9 9 4 5 11 10 11 11 9 6 13 12 13 9 9 nan
nan 13 11 10 11 10 10 10 10 13 -2 -4 9 11 10 9 18 16 12 7 6 7 10 14 9 1 9 11 11 12 8 11 13 9 6 5 11 14 10 7 8 12 12 9 8 8 nan
nan 14 13 10 9 10 11 12 12 15 0 -4 7 11 12 14 12 11 16 12 10 11 10 8 6 10 12 12 10 11 11 11 9 11 13 9 7 9 8 10 16 13 7 3 7 7 nan
nan nan nan nan nan nan nan nan nan nan nan nan nan nan nan nan nan nan nan nan nan nan nan nan nan nan nan nan nan nan nan nan nan nan nan nan nan nan nan nan nan nan nan nan nan nan nan
CAPE
5 0 0 0 0 0 0 0 0 0 0 0 3 7 6 3 4 7 6 3 3 4 3 1 2 2 0 7 0 154 294 188 0 0 0 0 0 0 0 0 0 0 0 0 0 4 237
9 0 0 0 0 0 0 0 0 0 0 0 1 1 6 2 1 7 5 4 0 4 3 3 2 1 0 0 0 133 182 0 0 0 0 0 0 0 0 2 0 0 0 0 0 0 45
0 7 0 0 0 0 0 0 0 0 0 0 0 4 3 7 1 7 5 3 2 0 3 2 1 1 0 4 0 116 14 5 0 0 0 0 0 0 0 0 0 0 0 0 0 0 8
0 8 4 0 0 0 0 0 0 0 0 0 0 3 1 1 1 3 4 0 0 1 1 0 1 1 37 0 0 0 0 0 0 0 0 0 0 0 0 0 0 0 0 0 0 0 0
7 0 10 0 0 0 0 0 0 0 0 0 0 2 1 1 1 0 0 0 0 1 0 0 2 0 27 0 0 0 0 0 0 0 0 0 0 0 0 0 0 0 0 0 0 0 0
43 2 17 0 0 0 0 0 0 0 0 0 0 0 1 1 0 0 0 0 0 1 1 1 0 90 95 0 4 0 0 0 0 0 0 0 0 0 0 0 0 0 1 0 0 0 0
61 22 1 12 0 0 0 0 0 0 0 0 0 1 0 3 1 0 1 0 0 0 0 1 0 9 0 0 0 0 0 0 0 0 24 0 0 0 0 0 0 0 0 0 0 0 85
46 23 0 14 1 0 0 0 0 0 0 0 0 2 1 1 1 0 0 0 0 63 85 18 0 0 0 0 0 0 0 1 23 0 0 5 0 0 0 0 1 1 0 14 0 0 91
55 45 2 0 13 0 0 0 0 0 0 0 0 0 0 1 0 3 0 0 0 2 404 9 6 0 0 0 0 0 6 6 16 7 12 62 40 0 0 13 30 51 69 33 31 9 85
50 50 32 0 1 0 0 0 0 0 0 0 0 0 0 0 0 0 0 0 0 0 14 0 0 0 0 0 0 0 0 18 18 1 130 82 1 47 78 45 60 91 0 27 53 93 124
56 49 52 0 0 8 0 0 0 0 0 0 0 0 0 0 0 0 0 16 262 17 4 0 0 0 0 0 0 0 0 32 48 25 43 123 51 86 124 45 14 70 3 72 22 92 91
54 62 48 20 0 14 0 0 0 0 0 0 0 0 0 3 0 0 0 0 58 124 0 0 0 0 1 0 0 0 4 12 8 65 90 75 2 59 65 2 4 1 41 43 39 58 109
68 68 64 53 0 2 1 0 0 0 0 0 0 0 2 0 0 28 221 17 0 2 0 0 0 0 0 0 0 37 65 78 82 153 192 96 53 9 15 66 41 74 131 98 161 122 65
95 72 86 73 9 1 2 0 0 0 0 0 0 0 1 0 0 0 0 0 0 0 0 0 0 0 0 0 0 6 60 85 15 90 172 132 105 0 0 40 33 56 74 33 0 6 3
137 128 111 77 30 7 10 0 0 0 0 0 0 8 5 0 0 0 0 0 0 0 5 0 0 0 0 0 2 17 37 76 1 25 75 40 0 0 0 0 0 0 0 3 22 0 5
194 150 93 70 42 15 14 0 0 0 0 0 1 2 0 0 0 0 0 0 0 17 0 0 0 0 0 0 0 33 43 0 0 0 0 6 7 0 0 0 0 0 0 0 3 0 0
233 184 124 80 63 15 11 0 0 0 0 0 0 0 36 143 28 66 0 2 0 135 5 0 0 0 0 0 0 2 11 0 0 0 0 0 2 1 0 0 0 0 0 0 0 0 0
237 161 127 112 80 32 28 0 0 0 0 0 0 0 50 0 74 8 0 0 53 56 18 0 3 9 0 3 19 0 0 0 0 0 0 0 0 7 0 0 0 0 0 0 0 0 0
215 184 157 140 57 7 27 0 0 0 0 0 0 134 13 0 56 1 0 0 111 0 0 27 27 20 34 78 36 39 7 0 0 0 0 0 0 2 0 0 0 0 0 0 0 0 0
217 177 153 136 83 0 2 0 0 0 0 13 40 132 175 5 0 0 0 0 0 0 0 11 37 85 103 47 8 34 0 0 0 0 0 0 0 0 16 0 0 0 0 0 0 0 0
231 201 141 52 2 0 1 0 0 0 0 3 118 73 74 31 0 0 0 0 0 19 1 20 51 116 105 97 25 30 0 0 0 0 0 0 0 0 0 0 0 0 0 0 0 0 0
257 172 101 37 23 15 1 0 0 0 0 42 90 93 13 22 0 0 0 0 0 2 48 69 167 82 102 145 39 95 6 0 0 0 0 0 0 0 0 0 0 0 0 0 0 0 0
201 71 90 37 48 37 0 0 0 0 0 60 73 2 82 0 0 0 0 0 0 128 2 4 148 98 75 11 0 0 0 0 0 0 0 0 0 0 0 0 0 0 0 0 0 0 0
112 72 47 19 15 19 0 0 0 0 0 166 265 81 191 4 0 0 0 0 9 135 145 0 18 99 0 0 0 0 0 0 0 0 0 0 0 0 0 0 0 0 0 0 0 0 0
45 59 9 32 3 1 0 0 0 0 0 238 206 171 103 5 0 0 0 0 8 0 3 0 0 0 0 0 0 0 0 0 0 0 0 0 0 0 4 0 0 0 0 0 0 0 0
46 74 30 0 1 0 0 0 0 0 0 176 242 37 283 50 0 0 0 0 61 103 2 0 0 0 0 0 0 15 1 0 0 0 0 0 0 0 0 26 91 0 0 0 0 0 0
56 6 1 1 0 0 0 0 0 0 0 147 146 3 279 515 0 2 0 0 2 41 139 0 0 0 0 0 442 92 1 0 0 0 0 0 0 0 0 1 0 0 0 0 0 0 0
0 1 1 0 0 0 0 0 0 0 0 201 180 16 476 319 0 3 0 0 0 63 196 0 0 0 0 48 226 7 97 0 0 0 0 0 0 3 0 7 0 0 0 3 0 0 0
0 0 0 0 0 0 0 0 0 0 0 67 213 0 73 371 52 0 0 0 0 7 24 0 95 2 1 18 1 0 2 1 0 0 0 0 0 0 0 0 0 0 0 0 0 0 0